{"data":{"norad_id":66529,"epoch":"2026-05-25T05:14:08.610144Z","epoch_age_seconds":66355,"freshness":"FRESH","line1":"1 66529U 25265P   26145.21815521  .00015153  00000+0  55884-3 0  9998","line2":"2 66529  43.0027 206.0774 0001559 267.0874  92.9799 15.27591637 28816","mean_motion":15.27591637,"eccentricity":0.0001559,"inclination_deg":43.0027,"raan_deg":206.0774,"arg_perigee_deg":267.0874,"mean_anomaly_deg":92.9799,"bstar":0.00055884,"rev_number":2881,"period_min":94.266030601475,"perigee_km":481.94459741646,"apogee_km":484.08390437649,"semimajor_km":6861.1512508965,"source":"CELESTRAK","updated_at":"2026-05-25T13:38:21.251956Z"}}